This is the latest recevied weather packets stored in our database for station/object F4IVW-13. If no packets are shown the sender has not sent any weather packets the latest 10 day(s).
| Time | Temp. | Humidity | Pressure | Rain* | Wind** | Luminosity | Snow |
|---|---|---|---|---|---|---|---|
| 1777993476 | 16.67° C | 99% | 1013.4 hPa | 0 mm | - | 7 W/m² | - |
| 1777993154 | 17.22° C | 99% | 1013.4 hPa | 0 mm | - | 12 W/m² | - |
| 1777992518 | 17.78° C | 99% | 1013.5 hPa | 0 mm | - | 6 W/m² | - |
| 1777992199 | 17.22° C | 99% | 1013.4 hPa | 0 mm | - | 7 W/m² | - |
| 1777991879 | 16.67° C | 99% | 1013.4 hPa | 0 mm | - | 6 W/m² | - |
| 1777991561 | 16.67° C | 99% | 1013.4 hPa | 0 mm | - | 8 W/m² | - |
| 1777991250 | 16.67° C | 99% | 1013.5 hPa | 0 mm | - | 9 W/m² | - |
| 1777990925 | 16.67° C | 99% | 1013.5 hPa | 0 mm | - | 6 W/m² | - |
| 1777990613 | 17.22° C | 99% | 1013.5 hPa | 0 mm | - | 5 W/m² | - |
| 1777989971 | 16.11° C | 99% | 1013.6 hPa | 0 mm | - | 6 W/m² | - |
| 1777989657 | 15° C | 99% | 1013.7 hPa | 0 mm | - | 47 W/m² | - |
| 1777989028 | 15° C | 99% | 1013.8 hPa | 0 mm | - | 19 W/m² | - |
| 1777988704 | 15.56° C | 99% | 1013.8 hPa | 0 mm | - | 5 W/m² | - |
| 1777988387 | 16.11° C | 99% | 1013.8 hPa | 0 mm | - | 5 W/m² | - |
| 1777988064 | 16.11° C | 99% | 1013.9 hPa | 0 mm | - | 14 W/m² | - |
| 1777987753 | 15.56° C | 99% | 1013.8 hPa | 0 mm | - | 67 W/m² | - |
| 1777987426 | 16.11° C | 99% | 1013.8 hPa | 0 mm | - | 19 W/m² | - |
| 1777987118 | 15.56° C | 99% | 1013.8 hPa | 0 mm | - | 74 W/m² | - |
| 1777986792 | 15° C | 99% | 1013.9 hPa | 0 mm | - | 84 W/m² | - |
| 1777986163 | 15° C | 99% | 1014.1 hPa | 0 mm | - | 20 W/m² | - |
| 1777985842 | 15° C | 99% | 1014 hPa | 0 mm | - | 30 W/m² | - |
| 1777985520 | 15° C | 99% | 1014.1 hPa | 0 mm | - | 40 W/m² | - |
| 1777985206 | 14.44° C | 99% | 1014.1 hPa | 0 mm | - | 64 W/m² | - |
| 1777984575 | 14.44° C | 99% | 1014.2 hPa | 0.25 mm | - | 79 W/m² | - |
| 1777984248 | 14.44° C | 99% | 1014.3 hPa | 0.25 mm | - | 47 W/m² | - |
* Rain latest hour (hover to see other rain measurements)
** Current wind speed in m/s (hover to see current wind gust speed)